Weather History for Chignik, AK

Change the Weather History Date:

Sunday, October 7, 2012

  Actual Average Record
Temperature  
Mean Temperature 53 °F -  
Max Temperature 60 °F 45 °F 60 °F (2012)
Min Temperature 46 °F 39 °F 33 °F (2000)
Degree Days  
Heating Degree Days 12    
Growing Degree Days 3 (Base 50)    
Moisture  
Dew Point 46 °F    
Average Humidity 82    
Maximum Humidity 93    
Minimum Humidity 63    
Precipitation  
Precipitation 0.00 in - - ()
Sea Level Pressure  
Sea Level Pressure 30.08 in    
Wind  
Wind Speed - (North)    
Max Wind Speed -    
Max Gust Speed -    
Visibility 9 miles    
Events      
Averages and records for this station are not official NWS values.
T = Trace of Precipitation, MM = Missing Value Source: NWS Daily Summary

Daily Weather History Graph

Daily Weather History Graph

Search for Another Location

Airport:

Trip Planner

Search our weather history database for the weather conditions in past years. The results will help you decide how hot, cold, wet, or windy it might be!

Date:

Astronomy

Oct. 07, 2012 Rise Set
Actual Time 8:50 AM AKDT 7:50 PM AKDT
Civil Twilight 8:12 AM AKDT 8:28 PM AKDT
Nautical Twilight 7:29 AM AKDT 9:11 PM AKDT
Astronomical Twilight 6:45 AM AKDT 9:55 PM AKDT
Moon No Moon Rise 4:20 PM AKDT (10/7)
Length of Visible Light 12h 15m
Length of Day
11h 00m
Waning Gibbous, 55% of the Moon is Illuminated
Oct 7
Waning Gibbous
Oct 7
Last Quarter
Oct 15
New
Oct 21
First Quarter
Oct 29
Full

Hourly Weather History & Observations

Time (AKDT) Temp. Dew Point Humidity Pressure Visibility Wind Dir Wind Speed Gust Speed Precip Events Conditions
12:16 AM 51.8 °F 46.4 °F 82% 29.97 in 10.0 mi North - - N/A   Mostly Cloudy
12:36 AM 51.8 °F 46.4 °F 82% 29.97 in 10.0 mi North - - N/A   Mostly Cloudy
12:56 AM 51.8 °F 46.4 °F 82% 29.97 in 10.0 mi North - - N/A   Mostly Cloudy
1:16 AM 50.0 °F 44.6 °F 82% 29.98 in 10.0 mi North - - N/A   Overcast
1:36 AM 48.2 °F 44.6 °F 87% 29.98 in 10.0 mi North - - N/A   Overcast
1:56 AM 48.2 °F 44.6 °F 87% 29.99 in 10.0 mi North - - N/A   Overcast
2:16 AM 48.2 °F 44.6 °F 87% 29.99 in 10.0 mi North - - N/A   Mostly Cloudy
2:36 AM 48.2 °F 46.4 °F 93% 29.99 in 10.0 mi North - - N/A   Overcast
2:56 AM 50.0 °F 46.4 °F 87% 30.00 in 10.0 mi North - - N/A   Overcast
3:16 AM 48.2 °F 46.4 °F 93% 29.99 in 10.0 mi North - - N/A   Overcast
3:36 AM 48.2 °F 46.4 °F 93% 30.00 in 10.0 mi North - - N/A   Overcast
3:56 AM 48.2 °F 46.4 °F 93% 30.00 in 10.0 mi North - - N/A   Overcast
4:16 AM 48.2 °F 46.4 °F 93% 29.99 in 10.0 mi North - - N/A   Overcast
4:36 AM 50.0 °F 46.4 °F 87% 30.00 in 10.0 mi North - - N/A   Overcast
4:56 AM 51.8 °F 46.4 °F 82% 29.99 in 10.0 mi North - - N/A   Overcast
5:16 AM 59.0 °F 51.8 °F 77% 30.00 in 10.0 mi North - - N/A   Mostly Cloudy
5:36 AM 59.0 °F 50.0 °F 72% 29.99 in 10.0 mi North - - N/A   Mostly Cloudy
5:56 AM 60.8 °F 50.0 °F 68% 30.01 in 10.0 mi North - - N/A   Mostly Cloudy
6:16 AM 57.2 °F 48.2 °F 72% 30.00 in 10.0 mi North - - N/A   Mostly Cloudy
6:36 AM 60.8 °F 50.0 °F 68% 29.98 in 10.0 mi North - - N/A   Mostly Cloudy
6:56 AM 60.8 °F 50.0 °F 68% 29.98 in 10.0 mi North - - N/A   Mostly Cloudy
7:16 AM 60.8 °F 48.2 °F 63% 30.01 in 10.0 mi North - - N/A   Scattered Clouds
7:36 AM 51.8 °F 46.4 °F 82% 30.02 in 10.0 mi North - - N/A   Partly Cloudy
7:56 AM 51.8 °F 46.4 °F 82% 30.03 in 10.0 mi North - - N/A   Mostly Cloudy
8:16 AM 53.6 °F 46.4 °F 77% 30.04 in 10.0 mi North - - N/A   Mostly Cloudy
8:36 AM 51.8 °F 46.4 °F 82% 30.03 in 10.0 mi North - - N/A   Overcast
8:56 AM 51.8 °F 46.4 °F 82% 30.05 in 10.0 mi North - - N/A   Overcast
9:36 AM 51.8 °F 46.4 °F 82% 30.03 in 10.0 mi North - - N/A   Overcast
9:56 AM 53.6 °F 46.4 °F 77% 30.03 in 10.0 mi North - - N/A   Overcast
10:16 AM 55.4 °F 46.4 °F 72% 30.04 in 10.0 mi North - - N/A   Overcast
10:36 AM 53.6 °F 46.4 °F 77% 30.06 in 10.0 mi North - - N/A   Overcast
10:56 AM 51.8 °F 46.4 °F 82% 30.07 in 10.0 mi North - - N/A   Overcast
11:16 AM 53.6 °F 46.4 °F 77% 30.08 in 10.0 mi North - - N/A   Overcast
11:36 AM 51.8 °F 46.4 °F 82% 30.08 in 10.0 mi North - - N/A   Overcast
11:56 AM 53.6 °F 46.4 °F 77% 30.08 in 10.0 mi North - - N/A   Overcast
12:16 PM 53.6 °F 46.4 °F 77% 30.09 in 10.0 mi North - - N/A   Overcast
12:36 PM 57.2 °F 48.2 °F 72% 30.10 in 10.0 mi North - - N/A   Overcast
12:56 PM 53.6 °F 48.2 °F 82% 30.11 in 10.0 mi North - - N/A   Overcast
1:16 PM 53.6 °F 46.4 °F 77% 30.11 in 10.0 mi North - - N/A   Overcast
1:36 PM 53.6 °F 48.2 °F 82% 30.11 in 10.0 mi North - - N/A   Overcast
1:56 PM 53.6 °F 46.4 °F 77% 30.11 in 10.0 mi North - - N/A   Overcast
2:16 PM 53.6 °F 46.4 °F 77% 30.11 in 10.0 mi North - - N/A   Overcast
2:36 PM 53.6 °F 46.4 °F 77% 30.12 in 10.0 mi North - - N/A   Overcast
2:56 PM 51.8 °F 46.4 °F 82% 30.12 in 10.0 mi North - - N/A   Overcast
3:16 PM 50.0 °F 44.6 °F 82% 30.12 in 10.0 mi North - - N/A   Overcast
3:36 PM 48.2 °F 44.6 °F 87% 30.12 in 9.0 mi North - - N/A   Overcast
3:56 PM 48.2 °F 44.6 °F 87% 30.13 in 9.0 mi North - - N/A   Overcast
4:16 PM 48.2 °F 44.6 °F 87% 30.13 in 10.0 mi North - - N/A   Overcast
4:36 PM 48.2 °F 44.6 °F 87% 30.12 in 6.0 mi North - - N/A   Overcast
4:56 PM 48.2 °F 44.6 °F 87% 30.12 in 7.0 mi North - - N/A   Overcast
5:16 PM 48.2 °F 44.6 °F 87% 30.13 in 9.0 mi North - - N/A   Overcast
5:36 PM 48.2 °F 44.6 °F 87% 30.13 in 6.0 mi North - - N/A   Mostly Cloudy
5:56 PM 48.2 °F 44.6 °F 87% 30.14 in 5.0 mi North - - N/A   Overcast
6:16 PM 48.2 °F 44.6 °F 87% 30.15 in 5.0 mi North - - N/A   Overcast
6:36 PM 48.2 °F 44.6 °F 87% 30.15 in 3.0 mi North - - N/A   Overcast
6:56 PM 48.2 °F 44.6 °F 87% 30.16 in 2.5 mi North - - N/A   Overcast
7:16 PM 48.2 °F 44.6 °F 87% 30.16 in 2.0 mi North - - N/A   Overcast
7:36 PM 48.2 °F 44.6 °F 87% 30.17 in 2.5 mi North - - N/A   Mostly Cloudy
7:56 PM 48.2 °F 42.8 °F 82% 30.17 in 2.5 mi North - - N/A   Scattered Clouds
8:16 PM 48.2 °F 42.8 °F 82% 30.17 in 6.0 mi North - - N/A   Mostly Cloudy
8:36 PM 48.2 °F 42.8 °F 82% 30.17 in 10.0 mi North - - N/A   Overcast
8:56 PM 46.4 °F 42.8 °F 87% 30.16 in 10.0 mi North - - N/A   Overcast
9:16 PM 46.4 °F 42.8 °F 87% 30.15 in 10.0 mi North - - N/A   Scattered Clouds
9:36 PM 48.2 °F 42.8 °F 82% 30.15 in 10.0 mi North - - N/A   Clear
9:56 PM 46.4 °F 42.8 °F 87% 30.15 in 10.0 mi North - - N/A   Scattered Clouds
10:16 PM 48.2 °F 42.8 °F 82% 30.15 in 10.0 mi North - - N/A   Scattered Clouds
10:36 PM 46.4 °F 42.8 °F 87% 30.15 in 10.0 mi North - - N/A   Clear
10:56 PM 46.4 °F 42.8 °F 87% 30.16 in 10.0 mi North - - N/A   Mostly Cloudy
11:16 PM 48.2 °F 42.8 °F 82% 30.17 in 10.0 mi North - - N/A   Overcast
11:36 PM 48.2 °F 42.8 °F 82% 30.17 in 10.0 mi North - - N/A   Overcast
11:56 PM 46.4 °F 42.8 °F 87% 30.17 in 10.0 mi North - - N/A   Overcast